INMARSAT 3-F2

Last updated on Mon Oct 14 2024 00:02:37 GMT+0000 (Coordinated Universal Time)

1 24307U 96053A 24287.48761223 .00000138 00000+0 00000+0 0 9995 2 24307 8.4585 59.8564 0006545 130.2498 55.9031 0.99981956102835
UTC large
Height (km)
Speed (km/s)
/
Latitude / Longitude
Inclination (degrees)
Orbital Period (minutes)
Azimuth
Elevation
Range (km)
Doppler Factor

Next 0 passes for location: London (51.5072 / 0.1276)

Sorry there are no passes over London.